Location: Perryvale
(54.4667°N, 113.3833°W)
Time: 00:45:21
(UTC+00:00)

Vanguard 1 - Pass Details

Date: 22 May 2024
Orbit: 652 x 3825 km, 34.2° (Epoch: 13 June)

Event Time Altitude Azimuth Distance (km) Brightness Sun altitude
Rises 10:20:37 0° 270° (W) 6,681 13.9 -6.6°
Reaches altitude 10° 10:26:45 10° 255° (WSW) 6,144 13.6 -6.0°
Maximum altitude 10:38:36 19° 219° (SW) 5,974 13.4 -4.9°
Drops below altitude 10° 10:51:57 10° 184° (S) 6,908 13.9 -3.5°
Sets 10:59:48 0° 169° (S) 7,763 14.3 -2.7°
